{"data":{"norad_id":59772,"intl_designator":"2024-091V","name":"STARLINK-31835","alt_names":[],"object_type":"PAYLOAD","status":"ACTIVE","operator":null,"country":"US","launch_date":"2024-05-14","launch_site_code":"AFWTR","launch_vehicle":null,"mission":null,"orbit_class":"UNKNOWN","rcs_meters":null,"size_class":null,"mass_kg":null,"dimensions":null,"purposes":["comms"],"wikipedia_slug":null,"has_3d_model":false,"image_url":null,"decayed_at":null,"tle_current":{"epoch":"2026-05-24T22:41:23.812800Z","epoch_age_seconds":90180,"freshness":"FRESH","line1":"1 59772U 24091V   26144.94541450  .00001229  00000+0  51386-4 0  9995","line2":"2 59772  53.1605  32.3956 0001680  81.6099 278.5093 15.31698451114685","mean_motion":15.31698451,"eccentricity":0.000168,"inclination_deg":53.1605,"raan_deg":32.3956,"arg_perigee_deg":81.6099,"mean_anomaly_deg":278.5093,"bstar":5.1386e-5,"rev_number":11468,"period_min":94.013283036218,"perigee_km":469.594000607,"apogee_km":471.89522482887,"semimajor_km":6848.8816127179,"source":"CELESTRAK","updated_at":"2026-05-25T13:38:19.079700Z"}}}